{"data":{"norad_id":63958,"intl_designator":"2025-099G","name":"STARLINK-34144","alt_names":[],"object_type":"PAYLOAD","status":"ACTIVE","operator":null,"country":"US","launch_date":"2025-05-13","launch_site_code":"AFETR","launch_vehicle":null,"mission":null,"orbit_class":"UNKNOWN","rcs_meters":null,"size_class":null,"mass_kg":null,"dimensions":null,"purposes":["comms"],"wikipedia_slug":null,"has_3d_model":false,"image_url":null,"decayed_at":null,"tle_current":{"epoch":"2026-09-20T09:42:41.602752Z","epoch_age_seconds":155365,"freshness":"FRESH","line1":"1 63958U 25099G   26263.40464818  .00012255  00000+0  45398-3 0  9996","line2":"2 63958  43.0023 156.7248 0000990 279.0460  81.0279 15.27591161 77115","mean_motion":15.27591161,"eccentricity":9.9e-5,"inclination_deg":43.0023,"raan_deg":156.7248,"arg_perigee_deg":279.046,"mean_anomaly_deg":81.0279,"bstar":0.00045398,"rev_number":7711,"period_min":94.266059974931,"perigee_km":482.33642207904,"apogee_km":483.69493030893,"semimajor_km":6861.152676194,"source":"CELESTRAK","updated_at":"2026-09-21T09:00:35.174888Z"}}}